TimeCST,TemperatureF,Dew PointF,Humidity,Sea Level PressureIn,VisibilityMPH,Wind Direction,Wind SpeedMPH,Gust SpeedMPH,PrecipitationIn,Events,Conditions,WindDirDegrees,DateUTC
12:53 AM,48.9,17.1,28,30.47,10.0,NW,10.4,-,N/A,,Clear,310,2012-12-21 06:53:00
1:53 AM,48.0,16.0,28,30.46,10.0,NW,8.1,-,N/A,,Clear,310,2012-12-21 07:53:00
2:53 AM,46.9,15.1,28,30.45,10.0,WNW,8.1,-,N/A,,Clear,300,2012-12-21 08:53:00
3:53 AM,46.0,15.1,29,30.46,10.0,NW,10.4,-,N/A,,Clear,310,2012-12-21 09:53:00
4:53 AM,46.0,15.1,29,30.46,10.0,NW,9.2,-,N/A,,Clear,310,2012-12-21 10:53:00
5:53 AM,46.0,17.1,31,30.48,10.0,NW,11.5,-,N/A,,Clear,320,2012-12-21 11:53:00
6:53 AM,45.0,18.0,34,30.48,10.0,NW,9.2,-,N/A,,Clear,310,2012-12-21 12:53:00
7:53 AM,46.0,18.0,33,30.51,10.0,NW,10.4,-,N/A,,Clear,320,2012-12-21 13:53:00
8:53 AM,53.1,21.0,29,30.52,10.0,NNW,11.5,-,N/A,,Clear,330,2012-12-21 14:53:00
9:53 AM,59.0,24.1,26,30.53,10.0,NNW,12.7,-,N/A,,Clear,330,2012-12-21 15:53:00
10:53 AM,63.0,30.0,29,30.52,10.0,NNW,9.2,-,N/A,,Clear,340,2012-12-21 16:53:00
11:53 AM,66.0,39.0,37,30.49,10.0,NE,8.1,-,N/A,,Clear,40,2012-12-21 17:53:00
12:53 PM,66.0,39.9,38,30.45,10.0,NNE,8.1,-,N/A,,Clear,30,2012-12-21 18:53:00
1:53 PM,66.9,41.0,39,30.44,10.0,NNE,5.8,-,N/A,,Clear,20,2012-12-21 19:53:00
2:53 PM,64.9,42.1,43,30.40,10.0,NNE,5.8,-,N/A,,Clear,20,2012-12-21 20:53:00
3:53 PM,64.9,43.0,45,30.38,10.0,ENE,4.6,-,N/A,,Clear,60,2012-12-21 21:53:00
4:53 PM,63.0,44.1,50,30.37,10.0,ENE,4.6,-,N/A,,Clear,60,2012-12-21 22:53:00
5:53 PM,59.0,44.1,58,30.38,10.0,NNE,4.6,-,N/A,,Clear,30,2012-12-21 23:53:00
6:53 PM,55.9,43.0,62,30.39,10.0,NNE,6.9,-,N/A,,Clear,30,2012-12-22 00:53:00
7:53 PM,55.0,44.1,67,30.38,10.0,NE,10.4,-,N/A,,Clear,50,2012-12-22 01:53:00
8:53 PM,57.0,46.0,67,30.38,10.0,ENE,8.1,-,N/A,,Clear,70,2012-12-22 02:53:00
9:53 PM,57.0,46.9,69,30.37,10.0,ENE,6.9,-,N/A,,Clear,70,2012-12-22 03:53:00
10:53 PM,55.0,46.9,74,30.35,10.0,ENE,5.8,-,N/A,,Clear,60,2012-12-22 04:53:00
11:53 PM,55.0,48.9,80,30.34,10.0,ENE,5.8,-,N/A,,Clear,60,2012-12-22 05:53:00